[[{"header":{"parameterUnit":"m.s-1","parameterCategory":1,"la1":30.2991,"la2":30.254,"lo1":-89.0895,"lo2":-89.0444,"dy":0.0017,"dx":0.0017,"nx":28,"ny":28,"refTime":"2024-02-01T09:00:00:Z","depth":0,"parameterNumber":2,"parameterNumberName":"U-component_of_WINDS"},"data":[0,0,0,0,0,0,0,0,0,0,0,0,0,0,0,0,0,0,0,0,0,0,0,0,0,0,0,0,0,0,0,0,0,0,0,0,0,0,0,0,0,0,0,0,0,0,0,0,0,0,0,0,0,0,0,0,0,0,-0.1271,-0.1271,0,-0.1291,-0.1292,-0.1292,-0.1269,-0.1268,-0.1267,-0.1266,-0.1291,-0.1292,-0.1294,0,0,0,0,0,0,0,0,0,0,0,0,0,-0.1215,-0.1216,-0.1271,-0.1271,-0.1271,-0.1291,-0.1292,-0.1292,-0.1269,-0.1268,-0.1267,-0.1266,-0.1291,-0.1292,-0.1294,0,0,0,0,0,0,0,0,0,0,0,0,0,-0.1238,-0.1216,-0.1271,-0.1262,-0.1262,-0.1291,-0.1292,-0.1292,-0.1269,-0.1268,-0.1267,-0.1265,-0.129,-0.1292,-0.1294,-0.1335,0,0,-0.1301,-0.1302,0,0,0,0,0,0,0,0,-0.1236,-0.124,-0.1263,-0.1263,-0.1262,-0.1276,-0.1281,-0.1306,-0.127,-0.1266,-0.1266,-0.1265,-0.1287,-0.129,-0.1297,-0.1336,-0.1337,-0.1301,-0.1303,-0.1304,-0.1304,0,0,0,0,0,0,0,-0.1235,-0.1239,-0.1279,-0.1264,-0.1263,-0.1258,-0.126,-0.1286,-0.1284,-0.1267,-0.1265,-0.1268,-0.1287,-0.1295,-0.1297,-0.1337,-0.1301,-0.1303,-0.1305,-0.1306,-0.1412,-0.1413,0,0,0,0,0,0,-0.1234,-0.1238,-0.1278,-0.128,-0.1246,-0.126,-0.1262,-0.1273,-0.1284,-0.1284,-0.1269,-0.1266,-0.1291,-0.1295,-0.1298,-0.1347,-0.1304,-0.1306,-0.1307,-0.1411,-0.1412,-0.1414,0,0,0,0,0,0,-0.1233,-0.1238,-0.1278,-0.1258,-0.1263,-0.1263,-0.1275,-0.1274,-0.1282,-0.1285,-0.1285,-0.1277,-0.129,-0.1295,-0.1326,-0.1348,-0.1307,-0.1309,-0.1409,-0.1411,-0.1413,-0.1445,0,0,0,0,0,0,-0.1231,-0.1237,-0.1252,-0.1259,-0.1264,-0.1304,-0.1276,-0.1276,-0.1285,-0.1283,-0.1293,-0.1293,-0.129,-0.1323,-0.1328,-0.135,-0.131,-0.1407,-0.141,-0.1412,-0.1442,-0.1448,-0.1454,0,0,0,0,0,-0.1229,-0.1261,-0.1253,-0.1258,-0.1282,-0.1305,-0.1309,-0.1303,-0.1287,-0.1302,-0.1305,-0.1293,-0.1344,-0.1326,-0.1332,-0.1355,-0.1406,-0.1409,-0.1412,-0.144,-0.1447,-0.1454,0,0,0,0,0,0,-0.1258,-0.1261,-0.1253,-0.1287,-0.1296,-0.1301,-0.1321,-0.1311,-0.1325,-0.1322,-0.1316,-0.1318,-0.1352,-0.1356,-0.1336,-0.1395,-0.1372,-0.1377,-0.1391,-0.1398,-0.1404,-0.1403,-0.1312,0,0,0,0,0,-0.1268,-0.1285,-0.1288,-0.1318,-0.1323,-0.1321,-0.1331,-0.1326,-0.1335,-0.1339,-0.1344,-0.1355,-0.1373,-0.1386,-0.1403,-0.1442,-0.1445,-0.1461,-0.1467,-0.1471,-0.1476,-0.1499,-0.1507,-0.1425,-0.1425,-0.1425,0,0,-0.1289,-0.1293,-0.1305,-0.1324,-0.133,-0.135,-0.1324,-0.1346,-0.1361,-0.1343,-0.1373,-0.1376,-0.1388,-0.1424,-0.144,-0.1429,-0.1499,-0.1475,-0.1479,-0.1482,-0.1503,-0.1511,-0.1518,-0.1427,-0.1427,-0.1427,0,0,-0.1339,-0.1343,-0.1369,-0.1376,-0.1385,-0.1384,-0.139,-0.1397,-0.1398,-0.1428,-0.1415,-0.1433,-0.1464,-0.1474,-0.1483,-0.1535,-0.1526,-0.1541,-0.1571,-0.1594,-0.16,-0.1606,-0.1627,-0.1634,-0.1545,-0.1546,-0.1546,0,-0.1365,-0.1393,-0.1384,-0.1407,-0.1416,-0.1399,-0.1426,-0.1434,-0.1449,-0.1456,-0.1443,-0.1483,-0.1489,-0.1528,-0.1541,-0.1547,-0.1556,-0.1541,-0.16,-0.1605,-0.1611,-0.1631,-0.1638,-0.1547,-0.1547,-0.1547,-0.1547,0,-0.1426,-0.1445,-0.1465,-0.148,-0.1491,-0.1516,-0.1512,-0.1525,-0.1518,-0.1518,-0.1549,-0.1556,-0.1575,-0.1583,-0.1577,-0.1622,-0.1614,-0.16,-0.1578,-0.1621,-0.1639,-0.1647,-0.155,-0.155,-0.1549,-0.1548,0,0,-0.1496,-0.1504,-0.1511,-0.1518,-0.1527,-0.1543,-0.1567,-0.1585,-0.1597,-0.1607,-0.1629,-0.1656,-0.1643,-0.1653,-0.1648,-0.1668,-0.1711,-0.1651,-0.1652,-0.1664,-0.1763,-0.1775,-0.1784,-0.1704,-0.1705,-0.1706,-0.1762,0,-0.1547,-0.1589,-0.1581,-0.1622,-0.1642,-0.1625,-0.1647,-0.1655,-0.1656,-0.1673,-0.1674,-0.1694,-0.1675,-0.1681,-0.1699,-0.1702,-0.1731,-0.1698,-0.1726,-0.1728,-0.1726,-0.1793,-0.1806,-0.1858,-0.1769,-0.1771,-0.1771,0,-0.1613,-0.1625,-0.1668,-0.1675,-0.1683,-0.1702,-0.1718,-0.1734,-0.1744,-0.1743,-0.1754,-0.1745,-0.1771,-0.1746,-0.1783,-0.1761,-0.1772,-0.1775,-0.1777,-0.1781,-0.1754,-0.1802,-0.1875,-0.1884,-0.1782,-0.1782,-0.1781,0,-0.1662,-0.169,-0.1719,-0.1725,-0.1733,-0.1747,-0.1752,-0.176,-0.1771,-0.1785,-0.1792,-0.1809,-0.1819,-0.1833,-0.183,-0.1812,-0.1868,-0.1843,-0.187,-0.1871,-0.1885,-0.1885,-0.1964,-0.1888,-0.1888,-0.1888,-0.1888,0,-0.1722,-0.1749,-0.1742,-0.176,-0.1791,-0.1782,-0.1813,-0.1815,-0.1823,-0.1843,-0.1829,-0.1848,-0.1841,-0.186,-0.1858,-0.189,-0.1894,-0.1896,-0.1895,-0.1898,-0.1898,-0.1907,-0.1905,-0.189,-0.189,-0.1889,-0.1889,0,-0.1783,-0.1779,-0.181,-0.1815,-0.1817,-0.1839,-0.1844,-0.1862,-0.1861,-0.1886,-0.1892,-0.1891,-0.1913,-0.191,-0.1934,-0.1933,-0.1973,-0.1967,-0.197,-0.197,-0.1998,-0.1997,-0.2088,-0.21,-0.2014,-0.2015,-0.2016,0,-0.1823,-0.1844,-0.185,-0.1862,-0.1867,-0.1886,-0.1897,-0.1889,-0.1901,-0.1914,-0.1931,-0.1951,-0.1967,-0.2003,-0.2005,-0.2024,-0.202,-0.205,-0.2023,-0.2026,-0.2023,-0.2023,-0.2026,-0.2057,-0.2058,-0.2059,-0.2059,0,-0.1894,-0.1891,-0.1907,-0.1922,-0.1936,-0.1948,-0.1958,-0.1969,-0.1962,-0.1977,-0.1998,-0.2011,-0.2035,-0.2056,-0.2074,-0.208,-0.207,-0.2067,-0.2075,-0.208,-0.2082,-0.2084,-0.1988,-0.2066,-0.2065,-0.2065,-0.2065,-0.2064,-0.1948,-0.1966,-0.1973,-0.1992,-0.1999,-0.2009,-0.2027,-0.2027,-0.2045,-0.2064,-0.2058,-0.2083,-0.2093,-0.2115,-0.2123,-0.2143,-0.2132,-0.2143,-0.2146,-0.215,-0.2154,-0.2076,-0.2146,-0.2146,-0.2146,-0.2146,-0.2145,0,-0.2021,-0.2024,-0.2041,-0.2056,-0.2071,-0.2058,-0.2069,-0.2083,-0.2105,-0.2114,-0.213,-0.2155,-0.2175,-0.2179,-0.2199,-0.2214,-0.221,-0.222,-0.222,-0.2222,-0.2162,-0.2154,-0.2223,-0.2223,-0.2223,-0.2223,-0.2223,-0.2223,-0.2061,-0.2091,-0.2089,-0.2123,-0.2126,-0.215,-0.2158,-0.2168,-0.2176,-0.2204,-0.2221,-0.2222,-0.223,-0.225,-0.2268,-0.2269,-0.2278,-0.229,-0.229,-0.2234,-0.2226,-0.2219,-0.2212,-0.2292,-0.2292,-0.2348,-0.2349,-0.2349]},{"header":{"parameterUnit":"m.s-1","parameterCategory":1,"la1":30.2991,"la2":30.254,"lo1":-89.0895,"lo2":-89.0444,"dy":0.0017,"dx":0.0017,"nx":28,"ny":28,"refTime":"2024-02-01T09:00:00:Z","depth":0,"parameterNumber":3,"parameterNumberName":"V-component_of_WINDS"},"data":[0,0,0,0,0,0,0,0,0,0,0,0,0,0,0,0,0,0,0,0,0,0,0,0,0,0,0,0,0,0,0,0,0,0,0,0,0,0,0,0,0,0,0,0,0,0,0,0,0,0,0,0,0,0,0,0,0,0,-2.0851,-2.0851,0,-2.0857,-2.0857,-2.0857,-2.0836,-2.0836,-2.0835,-2.0835,-2.0841,-2.0842,-2.0843,0,0,0,0,0,0,0,0,0,0,0,0,0,-2.0821,-2.0821,-2.0851,-2.0851,-2.0851,-2.0857,-2.0857,-2.0857,-2.0836,-2.0836,-2.0835,-2.0834,-2.0841,-2.0842,-2.0843,0,0,0,0,0,0,0,0,0,0,0,0,0,-2.0831,-2.0822,-2.0851,-2.0841,-2.0841,-2.0857,-2.0857,-2.0857,-2.0837,-2.0836,-2.0835,-2.0834,-2.084,-2.0842,-2.0843,-2.0869,0,0,-2.0846,-2.0847,0,0,0,0,0,0,0,0,-2.083,-2.0832,-2.0843,-2.0842,-2.0841,-2.0845,-2.0849,-2.0861,-2.0837,-2.0838,-2.0835,-2.0833,-2.0843,-2.0844,-2.0847,-2.0869,-2.0869,-2.0846,-2.0847,-2.0847,-2.0848,0,0,0,0,0,0,0,-2.083,-2.0832,-2.0853,-2.0843,-2.0842,-2.0837,-2.0837,-2.0851,-2.0846,-2.0838,-2.0836,-2.0838,-2.0843,-2.0846,-2.0847,-2.0869,-2.0846,-2.0847,-2.0848,-2.0848,-2.0913,-2.0914,0,0,0,0,0,0,-2.083,-2.0831,-2.0853,-2.0854,-2.0833,-2.0838,-2.0839,-2.0845,-2.0846,-2.0845,-2.0838,-2.0837,-2.0845,-2.0846,-2.0847,-2.0878,-2.0847,-2.0849,-2.0849,-2.0912,-2.0913,-2.0914,0,0,0,0,0,0,-2.083,-2.0832,-2.0853,-2.0842,-2.0844,-2.084,-2.0847,-2.0845,-2.0849,-2.0846,-2.0845,-2.0843,-2.0844,-2.0846,-2.0863,-2.0877,-2.0849,-2.085,-2.091,-2.0912,-2.0913,-2.0938,0,0,0,0,0,0,-2.0829,-2.0832,-2.0842,-2.0842,-2.0845,-2.0869,-2.0848,-2.0846,-2.0851,-2.0849,-2.085,-2.0849,-2.0843,-2.0862,-2.0865,-2.0879,-2.0851,-2.0909,-2.0911,-2.0913,-2.0936,-2.094,-2.0944,0,0,0,0,0,-2.0828,-2.0849,-2.0843,-2.0846,-2.0857,-2.087,-2.0871,-2.0864,-2.0852,-2.0862,-2.086,-2.0849,-2.0876,-2.0864,-2.0867,-2.0881,-2.0908,-2.0911,-2.0913,-2.0934,-2.094,-2.0944,0,0,0,0,0,0,-2.085,-2.0849,-2.0842,-2.0864,-2.0867,-2.0866,-2.0878,-2.087,-2.0876,-2.0874,-2.0865,-2.0865,-2.0884,-2.0885,-2.0872,-2.0906,-2.089,-2.0893,-2.0905,-2.091,-2.0914,-2.0913,-2.0852,0,0,0,0,0,-2.0858,-2.0868,-2.0867,-2.0886,-2.0888,-2.0883,-2.0888,-2.0882,-2.0885,-2.0887,-2.0886,-2.0889,-2.0898,-2.0904,-2.0913,-2.0936,-2.0936,-2.0948,-2.0952,-2.0955,-2.0958,-2.097,-2.0975,-2.0921,-2.0921,-2.0921,0,0,-2.0874,-2.0874,-2.0881,-2.089,-2.0892,-2.0903,-2.0884,-2.0897,-2.0905,-2.0888,-2.0905,-2.0905,-2.0908,-2.0929,-2.0938,-2.093,-2.0972,-2.0958,-2.0961,-2.0961,-2.0973,-2.0978,-2.0982,-2.0923,-2.0923,-2.0923,0,0,-2.0907,-2.0909,-2.0925,-2.0927,-2.093,-2.0927,-2.0931,-2.0932,-2.0931,-2.0947,-2.0935,-2.0945,-2.0961,-2.0963,-2.0967,-2.1002,-2.0992,-2.1005,-2.1025,-2.1038,-2.1042,-2.1045,-2.1058,-2.1062,-2.1008,-2.1008,-2.1008,0,-2.0926,-2.0942,-2.0934,-2.0948,-2.0952,-2.0938,-2.0954,-2.0957,-2.0963,-2.0966,-2.0957,-2.0976,-2.0977,-2.0998,-2.1007,-2.101,-2.1014,-2.1004,-2.1042,-2.1045,-2.1049,-2.106,-2.1065,-2.1009,-2.1009,-2.1009,-2.1009,0,-2.0965,-2.0976,-2.0989,-2.0995,-2.1001,-2.1015,-2.101,-2.1017,-2.101,-2.1008,-2.1025,-2.1026,-2.1034,-2.1039,-2.1033,-2.1059,-2.1054,-2.1043,-2.1026,-2.1055,-2.1066,-2.107,-2.1011,-2.1011,-2.101,-2.101,0,0,-2.1013,-2.1014,-2.1019,-2.1021,-2.1024,-2.1032,-2.1046,-2.1054,-2.106,-2.1065,-2.1076,-2.109,-2.108,-2.1084,-2.1079,-2.1089,-2.1117,-2.1078,-2.1078,-2.1084,-2.1145,-2.1153,-2.1158,-2.1111,-2.1112,-2.1112,-2.1145,0,-2.1045,-2.1069,-2.1063,-2.1087,-2.1097,-2.1084,-2.1096,-2.1099,-2.1097,-2.1106,-2.1104,-2.1114,-2.1101,-2.1103,-2.1113,-2.1111,-2.1129,-2.1109,-2.1121,-2.1121,-2.112,-2.1163,-2.1171,-2.1202,-2.1149,-2.115,-2.115,0,-2.1087,-2.1093,-2.1117,-2.1118,-2.1122,-2.1133,-2.114,-2.1148,-2.1151,-2.1149,-2.1154,-2.1146,-2.116,-2.1144,-2.1163,-2.1149,-2.1154,-2.1154,-2.1155,-2.1155,-2.1137,-2.1164,-2.1212,-2.1216,-2.1157,-2.1156,-2.1156,0,-2.1118,-2.1133,-2.1149,-2.1152,-2.1153,-2.1161,-2.1162,-2.1164,-2.117,-2.1175,-2.1179,-2.1186,-2.119,-2.1196,-2.1191,-2.118,-2.1211,-2.1194,-2.1209,-2.1209,-2.1216,-2.1215,-2.1264,-2.122,-2.122,-2.122,-2.122,0,-2.1155,-2.117,-2.1163,-2.1173,-2.1191,-2.1183,-2.12,-2.12,-2.1202,-2.1212,-2.1202,-2.1211,-2.1204,-2.1212,-2.1208,-2.1225,-2.1227,-2.1225,-2.1224,-2.1226,-2.1226,-2.1228,-2.1226,-2.1221,-2.1221,-2.1221,-2.122,0,-2.1193,-2.1189,-2.1206,-2.1206,-2.1206,-2.1219,-2.1219,-2.1228,-2.1226,-2.1239,-2.1241,-2.1237,-2.1247,-2.1243,-2.1253,-2.1251,-2.1271,-2.1267,-2.127,-2.1269,-2.1284,-2.1283,-2.1335,-2.1342,-2.1294,-2.1295,-2.1295,0,-2.1216,-2.1228,-2.1229,-2.1235,-2.1237,-2.1246,-2.1251,-2.1245,-2.125,-2.1255,-2.1264,-2.1273,-2.128,-2.1296,-2.1295,-2.1303,-2.1299,-2.1317,-2.13,-2.1301,-2.1298,-2.1297,-2.1298,-2.132,-2.132,-2.1321,-2.1321,0,-2.1258,-2.1255,-2.1263,-2.127,-2.1277,-2.1282,-2.1287,-2.1292,-2.1285,-2.1293,-2.1302,-2.1308,-2.1319,-2.1328,-2.1335,-2.1336,-2.1327,-2.1327,-2.133,-2.1332,-2.1333,-2.1332,-2.1279,-2.1325,-2.1325,-2.1324,-2.1324,-2.1324,-2.1289,-2.1299,-2.1301,-2.131,-2.1313,-2.1317,-2.1326,-2.1325,-2.1333,-2.1341,-2.1337,-2.1348,-2.1351,-2.136,-2.1362,-2.1371,-2.1364,-2.137,-2.1371,-2.1372,-2.1374,-2.1332,-2.1373,-2.1372,-2.1372,-2.1372,-2.1372,0,-2.133,-2.1331,-2.1339,-2.1346,-2.1353,-2.1344,-2.1349,-2.1355,-2.1366,-2.1369,-2.1376,-2.1388,-2.1396,-2.1396,-2.1404,-2.1411,-2.1408,-2.1414,-2.1413,-2.1413,-2.138,-2.1376,-2.1416,-2.1416,-2.1416,-2.1416,-2.1416,-2.1416,-2.1352,-2.1368,-2.1365,-2.1382,-2.1383,-2.1394,-2.1398,-2.1402,-2.1404,-2.1418,-2.1425,-2.1424,-2.1426,-2.1434,-2.1442,-2.1442,-2.1445,-2.1452,-2.145,-2.142,-2.1415,-2.1411,-2.1407,-2.1453,-2.1453,-2.1482,-2.1482,-2.1482]}]]